Regional Weather Roundup
Issued by NWS Albany, NY

Home | Current Version | Previous Version | Graphics & Text | Print | Product List | Glossary Off
Versions: 1 2 3 4 5 6 7 8 9 10 11 12 13 14 15 16 17 18 19 20 21 22 23 24 25 26 27 28 29 30 31 32 33 34 35 36 37 38 39 40 41 42 43 44 45 46 47 48 49 50

000
ASUS41 KALY 270610
RWRALY

NEW YORK STATE HOURLY WEATHER ROUNDUP
NATIONAL WEATHER SERVICE ALBANY NY
200 AM EDT WED AUG 27 2014

NOTE: "FAIR" INDICATES FEW OR NO CLOUDS BELOW 12,000 FEET WITH NO
SIGNIFICANT WEATHER AND/OR NO OBSTRUCTIONS TO VISIBILITY.

NYZ032-033-038>043-046>054-057>066-NYZ062>081-270700-
EAST


CITY           SKY/WX    TMP DP  RH WIND       PRES   REMARKS
ALBANY         FAIR      70  63  78 S7        30.02S
GLENS FALLS    FAIR      62  59  90 N3        29.99F
POUGHKEEPSIE   FAIR      66  62  87 CALM      30.04F
NEWBURGH       CLEAR     68  64  88 SW6       30.07F
MONTGOMERY     FAIR      64  61  90 SW5       30.06F
WHITE PLAINS   FAIR      67  60  78 CALM      30.06F
ISLIP            N/A     68  61  78 CALM      30.05F
NEW YORK CITY  FAIR      73  57  57 SW6       30.05F
CENTRAL PARK   FAIR      72  57  59 W8        30.09F
$$

NYZ005>009-017-018-044>046-055-056-270700-
CENTRAL


CITY           SKY/WX    TMP DP  RH WIND       PRES   REMARKS
FULTON         MOCLDY    73  60  63 SW7       29.99S
SYRACUSE       MOCLDY    74  61  63 S3        29.98F
ROME           CLOUDY    69  60  73 E7        30.01F
ELMIRA         FAIR      63  60  90 CALM      30.04F
BINGHAMTON     FAIR      67  60  78 SW7       30.08F
MONTICELLO     FAIR      61  57  88 CALM      30.10F
$$

NYZ026>034-041>043-270700-
NORTH


CITY           SKY/WX    TMP DP  RH WIND       PRES   REMARKS
WATERTOWN      CLOUDY    76  61  59 SW8       29.96R
FORT DRUM      NOT AVBL
MASSENA        MOCLDY    73  62  68 SW10      29.91S
SARANAC LAKE   FAIR      64  56  75 SW6       29.99F
PLATTSBURGH    FAIR      69  62  78 CALM      29.91F
$$

NYZ001>004-010>016-019>021-270700-
WEST


CITY           SKY/WX    TMP DP  RH WIND       PRES   REMARKS
NIAGARA FALLS  LGT RAIN  73  70  90 SW7       30.00S
BUFFALO        MOCLDY    75  67  76 SW6       30.01S
DUNKIRK        MOCLDY    75  69  81 W8        30.04R
JAMESTOWN      FAIR      70  64  83 S6        30.09S
WELLSVILLE     FAIR      68  62  81 SW9       30.11S
ROCHESTER      CLOUDY    73  68  84 SW3       30.01R
PENN YAN       FAIR      71  62  73 SW9       30.03S
$$

             KEY
       WCI = WIND CHILL INDEX
       VSB = VISIBILITY
       HX  = HEAT INDEX
$$


USA.gov is the U.S. government's official web portal to all federal, state and local government web resources and services.